Home   Weather   Rzeszów   Past weeks

Flag for Poland Past Weather in Rzeszów, Poland — Yesterday and Last 2 Weeks

Now
21 °F

Ice fog.


Feels Like: 15 °F
Forecast: 14 / 23 °F
Wind: 5 mph from East

Location: Rzeszow-Jasionka

Current Time: Jan 16, 2017 at 6:25:15 pm

Latest Report: Jan 16, 2017 at 6:00 pm


Visibility: 0 mi

Pressure: 30.21 "Hg

Humidity: 93%

Dew Point: 19 °F

Location of RzeszówLocation

Past Weather in Rzeszów — Graph

°F

Rzeszów Temperature Yesterday

Maximum temperature yesterday: 30 °F (at 11:00 am)
Minimum temperature yesterday: 21 °F (at 9:30 pm)
Average temperature yesterday: 27 °F

High & Low Weather Summary for the Past Weeks

 TemperatureHumidityPressure
High37 °F (Jan 4, 8:00 pm)100% (Jan 2, 9:00 pm)30.51 "Hg (Jan 2, 9:00 pm)
Low-11 °F (Jan 7, 5:30 am)54% (Jan 10, 3:00 pm)29.36 "Hg (Jan 4, 6:30 pm)
Average19 °F81%29.97 "Hg
* Reported Jan 1 5:00 pm — Jan 16 5:00 pm, Rzeszów, Weather by CustomWeather, © 2017

Note: Actual official high and low records may vary slightly from our data, if they occured in-between our weather recording intervals... More about our weather records

Advertising

Rzeszów Weather History for the Previous 24 Hours

Scroll right to see more
 ConditionsComfort  
Time TempWeatherWind HumidityBarometerVisibility
5:00 pm
Mon, Jan 16
23 °FIce fog.3 mph93%30.18 "Hg1 mi
4:30 pm25 °FClear.1 mph86%30.18 "Hg6 mi
4:00 pm27 °FClear.1 mph80%30.18 "Hg10 mi
3:30 pm28 °FSunny.1 mph80%30.18 "Hg10 mi
3:00 pm28 °FSunny.1 mph80%30.15 "Hg10 mi
2:30 pm30 °FSunny.2 mph75%30.15 "Hg10 mi
2:00 pm28 °FSunny.6 mph74%30.15 "Hg10 mi
1:30 pm28 °FSunny.6 mph80%30.15 "Hg10 mi
1:00 pm30 °FSunny.7 mph75%30.15 "Hg10 mi
12:30 pm30 °FSunny.9 mph75%30.15 "Hg10 mi
12:00 pm28 °FSunny.7 mph80%30.15 "Hg10 mi
11:30 am28 °FSunny.8 mph80%30.15 "Hg10 mi
11:00 am28 °FSunny.10 mph80%30.15 "Hg10 mi
10:30 am27 °FSunny.12 mph86%30.15 "Hg10 mi
10:00 am27 °FSunny.9 mph86%30.15 "Hg10 mi
9:30 am25 °FSunny.6 mph93%30.15 "Hg10 mi
9:00 am25 °FScattered clouds.6 mph86%30.15 "HgN/A
8:30 am23 °FScattered clouds.7 mph100%30.12 "HgN/A
8:00 am21 °FPartly sunny.5 mph100%30.12 "Hg5 mi
7:30 am21 °FPartly sunny.5 mph93%30.12 "Hg4 mi
7:00 am21 °FIce fog.6 mph93%30.09 "Hg3 mi
6:30 am21 °FIce fog.5 mph100%30.09 "Hg2 mi
6:00 am21 °FIce fog.3 mph100%30.09 "Hg3 mi
5:30 am23 °FPassing clouds.5 mph93%30.07 "Hg4 mi
5:00 am23 °FPassing clouds.3 mph93%30.07 "Hg5 mi
4:30 am23 °FPassing clouds.6 mph93%30.07 "Hg5 mi
4:00 am25 °FPassing clouds.3 mph93%30.07 "Hg5 mi
3:30 am25 °FPassing clouds.6 mph93%30.07 "Hg5 mi
3:00 am25 °FPassing clouds.3 mph93%30.09 "Hg5 mi
2:30 am23 °FPassing clouds.5 mph100%30.09 "Hg5 mi
2:00 am23 °FPassing clouds.6 mph93%30.07 "Hg5 mi
1:00 am21 °FIce fog.5 mph93%30.07 "Hg3 mi
12:30 am21 °FIce fog.3 mph93%30.07 "Hg2 mi
12:00 am21 °FIce fog.6 mph93%30.07 "Hg1 mi
11:30 pm
Sun, Jan 15
21 °FIce fog.5 mph93%30.07 "Hg1 mi
11:00 pm21 °FIce fog.3 mph93%30.07 "Hg0 mi
10:30 pm21 °FIce fog.3 mph93%30.07 "Hg0 mi
10:00 pm23 °FIce fog.3 mph93%30.07 "Hg1 mi
9:30 pm21 °FIce fog.3 mph93%30.07 "Hg1 mi
9:00 pm23 °FIce fog.5 mph93%30.04 "Hg1 mi
8:30 pm23 °FIce fog.6 mph100%30.04 "Hg1 mi
8:00 pm23 °FIce fog.3 mph100%30.04 "Hg1 mi
7:30 pm23 °FIce fog.3 mph100%30.04 "Hg0 mi
7:00 pm25 °FIce fog.5 mph93%30.04 "Hg0 mi
6:30 pm27 °FChilly.5 mph93%30.04 "Hg1 mi
6:00 pm27 °FIce fog.7 mph93%30.04 "Hg2 mi
Weather by CustomWeather, © 2017

See weather overviewHow to use our weather pages